Portada
METAR-TAF:

METAR-TAF

Aeroports :

Esperance, Austràlia

latitud: 33-41-04S, longitud: 121-49-22E, altitud: 143 m

Observació

L'informe es va fer fa 1 hora i 6 minuts, a les 03:00 UTC
Vent 6 kt del Nord/Nord-Est
Temperatura 28°C
Humitat 51%
Pressió 1012 hPa
Visibilitat 10 km o més

METAR: YESP 210300Z AUTO 02006KT 9999 // NCD 28/17 Q1012

Hora: 12:06 (04:06 UTC)


TAF: manca

Observacions i pronòstics meteorològics de més de 4000 aeroports (METAR i TAF).

Les estacions disponibles són els punts grocs i vermells al mapa.

Posi el ratolí al punt desitjat per veure el nom de l'estació.

Feu clic per veure les observacions i els pronòstics meteorològics.

Per canviar el mapa: feu clic els botons verds amb una creu de color negre per apropar; al botó verd amb un guió per allunyar la imatge; o en les fletxes verdes per a mapes adjacents.


METAR-TAF: